Date String (YYYY-MM-DD hh:mm:ss) UTC,Instrument flags,Ambient pressure (hPa),Sample flow (lpm),Bypass flow (lpm),Sample temperature (°C),Ambient temperature (°C),ASC tube jacket temperature (°C),LED temperature (°C),Box temperature (°C),Sample RH (%),Span deviation,Mass concentration (μg/m³),Mass concentration (μg/m³),Mass concentration (μg/m³)
DateTimeUTC,F1_M11,P_M11,Q1_M11,Q2_M11,T1_M11,T2_M11,T3_M11,T4_M11,T5_M11,U1_M11,ZSPAN_M11,X0_M11,X2_M11,X1_M11
2022-11-09 18:00:00,,0816.8,5.00,0.00,22.4,20.9,00.0,31.3,24.3,17.5,0000.7,0021.02,0011.64,0009.87
2022-11-09 18:01:00,,0816.7,5.00,0.00,22.4,20.9,00.0,31.3,24.3,17.5,0000.8,0020.87,0011.64,0009.87
2022-11-09 18:02:00,,0816.9,5.01,0.00,22.4,20.9,00.0,31.3,24.3,17.6,0000.9,0021.22,0011.69,0009.88
2022-11-09 18:03:00,,0816.5,5.01,0.00,22.4,20.8,00.0,31.3,24.2,17.7,0000.6,0020.74,0011.65,0009.89
2022-11-09 18:04:00,,0816.5,5.00,0.00,22.4,20.8,00.0,31.3,24.2,17.8,-000.1,0019.82,0011.59,0009.90
2022-11-09 18:05:00,,0816.6,4.99,0.00,22.4,20.7,00.0,31.2,24.2,17.8,-000.2,0019.18,0011.61,0009.90
2022-11-09 18:06:00,,0816.5,5.00,0.00,22.3,20.6,00.0,31.2,24.2,17.8,0000.0,0019.12,0011.64,0009.91
2022-11-09 18:07:00,,0816.5,4.98,0.00,22.3,20.6,00.0,31.2,24.1,17.9,-000.3,0018.79,0011.65,0009.92
2022-11-09 18:08:00,,0816.4,5.00,0.00,22.3,20.6,00.0,31.2,24.1,18.0,-000.6,0019.67,0011.72,0009.93
2022-11-09 18:09:00,,0816.5,5.00,0.00,22.3,20.7,00.0,31.2,24.1,18.0,-000.8,0019.77,0011.80,0009.96
2022-11-09 18:10:00,,0816.5,5.00,0.00,22.3,20.7,00.0,31.2,24.1,17.9,-000.9,0020.04,0011.89,0010.02
2022-11-09 18:11:00,,0816.4,5.00,0.00,22.3,20.7,00.0,31.2,24.1,18.0,-000.9,0020.39,0011.90,0010.07
2022-11-09 18:12:00,,0816.3,5.00,0.00,22.3,20.8,00.0,31.2,24.2,17.9,-001.0,0020.68,0011.90,0010.13
2022-11-09 18:13:00,,0816.2,5.00,0.00,22.3,20.8,00.0,31.2,24.2,17.8,-001.1,0020.37,0011.91,0010.17
2022-11-09 18:14:00,,0816.1,4.99,0.00,22.3,20.7,00.0,31.2,24.1,17.8,-000.9,0021.34,0011.97,0010.22
2022-11-09 18:15:00,,0816.1,5.00,0.00,22.3,20.8,00.0,31.1,24.1,18.0,-000.4,0022.19,0012.05,0010.26
2022-11-09 18:16:00,,0816.1,5.01,0.00,22.3,20.9,00.0,31.2,24.1,18.0,-000.6,0022.41,0012.08,0010.30
2022-11-09 18:17:00,,0816.1,5.00,0.00,22.3,20.9,00.0,31.2,24.1,18.0,-001.1,0022.94,0012.11,0010.35
2022-11-09 18:18:00,,0816.1,4.99,0.00,22.3,21.0,00.0,31.2,24.2,18.0,-001.3,0023.79,0012.16,0010.38
2022-11-09 18:19:00,,0816.2,5.01,0.00,22.3,21.0,00.0,31.2,24.2,17.9,-001.3,0023.56,0012.19,0010.43
2022-11-09 18:20:00,,0816.3,5.01,0.00,22.3,21.0,00.0,31.2,24.2,17.9,-001.0,0023.40,0012.23,0010.46
2022-11-09 18:21:00,,0816.3,5.00,0.00,22.3,21.1,00.0,31.1,24.2,18.0,-000.8,0023.18,0012.22,0010.45
2022-11-09 18:22:00,,0816.2,5.00,0.00,22.3,21.1,00.0,31.1,24.3,18.1,-000.9,0022.78,0012.22,0010.45
2022-11-09 18:23:00,,0815.9,5.00,0.00,22.3,21.1,00.0,31.1,24.3,18.1,-001.0,0022.36,0012.23,0010.44
2022-11-09 18:24:00,,0815.8,5.00,0.00,22.4,21.1,00.0,31.1,24.3,17.9,-001.0,0022.52,0012.24,0010.42
2022-11-09 18:25:00,,0816.0,5.00,0.00,22.4,21.2,00.0,31.2,24.3,18.0,-000.9,0021.94,0012.21,0010.41
2022-11-09 18:26:00,,0816.0,5.00,0.00,22.4,21.2,00.0,31.2,24.3,18.0,-000.8,0021.66,0012.19,0010.41
2022-11-09 18:27:00,,0816.0,5.00,0.00,22.4,21.2,00.0,31.2,24.3,18.1,-000.5,0021.42,0012.17,0010.40
2022-11-09 18:28:00,,0815.9,5.00,0.00,22.4,21.2,00.0,31.2,24.4,18.1,-000.1,0021.04,0012.13,0010.39
2022-11-09 18:29:00,,0815.9,5.00,0.00,22.4,21.2,00.0,31.2,24.4,18.2,0000.3,0020.81,0012.13,0010.37
2022-11-09 18:30:00,,0815.9,5.00,0.00,22.5,21.3,00.0,31.2,24.4,18.3,0000.5,0020.69,0012.08,0010.34
2022-11-09 18:31:00,,0816.0,5.01,0.00,22.5,21.3,00.0,31.2,24.5,18.3,0000.4,0021.78,0012.01,0010.34
2022-11-09 18:32:00,,0816.0,5.01,0.00,22.5,21.3,00.0,31.2,24.4,18.2,0000.3,0021.92,0012.03,0010.36
2022-11-09 18:33:00,,0815.8,5.00,0.00,22.5,21.4,00.0,31.2,24.5,18.2,0000.5,0022.04,0012.07,0010.38
2022-11-09 18:34:00,,0815.7,5.00,0.00,22.5,21.4,00.0,31.3,24.5,18.1,0000.9,0022.31,0012.12,0010.39
2022-11-09 18:35:00,,0815.8,4.99,0.00,22.5,21.4,00.0,31.3,24.5,18.1,0001.0,0022.76,0012.15,0010.41
2022-11-09 18:36:00,,0815.7,5.00,0.00,22.6,21.4,00.0,31.3,24.5,18.1,0000.2,0022.32,0012.17,0010.42
2022-11-09 18:37:00,,0815.7,5.00,0.00,22.6,21.4,00.0,31.3,24.5,18.0,-000.1,0022.19,0012.21,0010.44
2022-11-09 18:38:00,,0815.6,5.00,0.00,22.6,21.5,00.0,31.3,24.5,18.0,-000.2,0022.50,0012.31,0010.46
2022-11-09 18:39:00,,0815.9,5.00,0.00,22.6,21.5,00.0,31.3,24.5,17.9,-000.2,0022.30,0012.29,0010.46
2022-11-09 18:40:00,,0816.0,5.00,0.00,22.6,21.5,00.0,31.4,24.5,18.1,-000.3,0021.64,0012.27,0010.46
2022-11-09 18:41:00,,0816.0,5.00,0.00,22.6,21.5,00.0,31.4,24.5,18.2,-000.5,0021.20,0012.25,0010.46
2022-11-09 18:42:00,,0816.1,5.00,0.00,22.6,21.5,00.0,31.4,24.6,18.0,-000.7,0020.61,0012.23,0010.44
2022-11-09 18:43:00,,0816.0,4.99,0.00,22.6,21.4,00.0,31.4,24.6,17.9,-000.8,0020.95,0012.18,0010.42
2022-11-09 18:44:00,,0815.4,5.00,0.00,22.6,21.4,00.0,31.4,24.6,17.8,-001.0,0021.13,0012.14,0010.38
2022-11-09 18:45:00,,0815.3,5.01,0.00,22.6,21.4,00.0,31.4,24.6,17.8,-001.3,0021.51,0012.14,0010.35
2022-11-09 18:46:00,,0815.3,4.99,0.00,22.6,21.3,00.0,31.4,24.5,17.9,-001.5,0020.67,0012.11,0010.34
2022-11-09 18:47:00,,0815.4,5.00,0.00,22.6,21.3,00.0,31.4,24.5,17.9,-001.2,0020.53,0012.05,0010.32
2022-11-09 18:48:00,,0815.4,4.99,0.00,22.6,21.3,00.0,31.4,24.5,17.9,-000.8,0020.23,0011.98,0010.29
2022-11-09 18:49:00,,0815.4,5.00,0.00,22.6,21.3,00.0,31.4,24.5,17.8,-000.6,0019.83,0011.88,0010.27
2022-11-09 18:50:00,,0815.4,5.00,0.00,22.6,21.4,00.0,31.4,24.5,17.8,-000.6,0020.07,0011.89,0010.28
2022-11-09 18:51:00,,0815.3,5.00,0.00,22.6,21.4,00.0,31.4,24.5,17.9,-000.6,0020.09,0011.90,0010.29
2022-11-09 18:52:00,,0815.3,5.01,0.00,22.6,21.4,00.0,31.4,24.6,17.9,-000.5,0020.19,0011.93,0010.30
2022-11-09 18:53:00,,0815.3,5.01,0.00,22.6,21.5,00.0,31.4,24.6,18.0,-000.6,0020.42,0012.01,0010.29
2022-11-09 18:54:00,,0815.2,5.00,0.00,22.7,21.5,00.0,31.4,24.6,17.8,-000.8,0019.88,0012.02,0010.28
2022-11-09 18:55:00,,0815.4,5.00,0.00,22.7,21.6,00.0,31.4,24.6,17.8,-000.8,0019.71,0012.09,0010.28
2022-11-09 18:56:00,,0815.5,5.00,0.00,22.7,21.6,00.0,31.4,24.7,17.7,-000.6,0019.42,0012.13,0010.30
2022-11-09 18:57:00,,0815.2,5.00,0.00,22.7,21.6,00.0,31.4,24.7,17.7,-000.4,0019.38,0012.12,0010.29
2022-11-09 18:58:00,,0815.3,5.00,0.00,22.7,21.6,00.0,31.5,24.7,17.7,-000.6,0019.63,0012.15,0010.28
2022-11-09 18:59:00,,0815.1,5.00,0.00,22.7,21.6,00.0,31.5,24.7,17.8,-001.1,0019.58,0012.14,0010.29
